(1685) Toro
ephemeris date magn radius delta ra dec elong phase
Today24 Jun 202617.41.910 AU1.226 AU13h34m-19°19'116.5°28.5°
(1685) Toro - 2026-06-24
astro.vanbuitenen.nl


 
-1 year
-1 month
-1 day
Now
+1 day
+1 month
+1 year

The interactive orbit chart above shows the body's path through the solar system and its position at the given date. Green and blue lines are shown perpendicular to the ecliptic plane: Green if the path is above the ecliptic plane, blue if it is below. (Left-click and drag to rotate the view; Right-click and drag to move the view; Use scroll wheel to zoom in our out.)

The orbital elements of Toro are:

            e (Eccentricity)                : 0.4359922
            a (Semimajor axis)              : 1.3678594
            i (Inclination)                 : 9.38177
            Ω (Longitude of ascending node) : 274.20784
            ω (Argument of perihelion)      : 127.27004
            M (Mean anomaly)                : 205.91450
            Epoch                           : 2026 Jun 09

            L (Longitude of perihelion)     : 221.85036
            B (Latitude of perihelion)      : 7.45361
            P (Orbital period in years)     : 1.60            
        

The light curve chart below shows the estimated development of the minor planet's magnitude.


The all-sky chart below shows the path of the minor planet over the same period as the light curve. The current position is marked yellow.





The following chart shows the path of the minor planet in the next few days. The field of view is optimized for (~10x50) binoculars and finderscopes.




Ephemerides:
Date       Time       RA (2000)    DEC (2000)    delta   radius  elong  phase   PA    magn
2026-06-24 00:00 UT   13 34 30.5   -19 19 35     1.226    1.910  116.5   28.5   107   17.4 
2026-06-24 16:06 UT   13 34 37.2   -19 14 36     1.232    1.908  115.8   28.6   107   17.4 
2026-06-25 00:00 UT   13 34 40.9   -19 12 11     1.235    1.908  115.5   28.7   107   17.4 
2026-06-26 00:00 UT   13 34 53.6   -19 05 05     1.244    1.906  114.6   29.0   108   17.4 
2026-06-27 00:00 UT   13 35 08.5   -18 58 15     1.252    1.904  113.7   29.3   108   17.4 
2026-06-28 00:00 UT   13 35 25.7   -18 51 42     1.261    1.902  112.8   29.5   108   17.4 
2026-06-29 00:00 UT   13 35 45.0   -18 45 26     1.270    1.900  111.9   29.8   108   17.5 
2026-06-30 00:00 UT   13 36 06.4   -18 39 26     1.279    1.897  111.0   30.0   108   17.5 
2026-07-01 00:00 UT   13 36 29.9   -18 33 42     1.288    1.895  110.1   30.2   109   17.5 
2026-07-02 00:00 UT   13 36 55.4   -18 28 14     1.297    1.893  109.2   30.5   109   17.5 
2026-07-03 00:00 UT   13 37 22.9   -18 23 02     1.306    1.891  108.3   30.7   109   17.5 
2026-07-04 00:00 UT   13 37 52.4   -18 18 06     1.315    1.889  107.5   30.9   109   17.6 
2026-07-05 00:00 UT   13 38 23.9   -18 13 25     1.324    1.886  106.6   31.1   109   17.6 
2026-07-06 00:00 UT   13 38 57.2   -18 08 59     1.334    1.884  105.8   31.3   109   17.6 
2026-07-07 00:00 UT   13 39 32.4   -18 04 48     1.343    1.882  105.0   31.5   109   17.6 
2026-07-08 00:00 UT   13 40 09.5   -18 00 52     1.352    1.879  104.1   31.6   109   17.6 
2026-07-09 00:00 UT   13 40 48.3   -17 57 11     1.361    1.877  103.3   31.8   110   17.6 
2026-07-10 00:00 UT   13 41 29.0   -17 53 43     1.370    1.875  102.5   32.0   110   17.7 
2026-07-11 00:00 UT   13 42 11.4   -17 50 30     1.380    1.872  101.7   32.1   110   17.7 
2026-07-12 00:00 UT   13 42 55.5   -17 47 31     1.389    1.870  100.9   32.3   110   17.7 
2026-07-13 00:00 UT   13 43 41.4   -17 44 45     1.398    1.867  100.1   32.4   110   17.7 
2026-07-14 00:00 UT   13 44 28.9   -17 42 13     1.407    1.864   99.3   32.6   110   17.7 
2026-07-15 00:00 UT   13 45 18.0   -17 39 54     1.416    1.862   98.5   32.7   110   17.7 
2026-07-16 00:00 UT   13 46 08.8   -17 37 47     1.426    1.859   97.8   32.8   110   17.8 
2026-07-17 00:00 UT   13 47 01.1   -17 35 54     1.435    1.856   97.0   32.9   110   17.8 
2026-07-18 00:00 UT   13 47 55.0   -17 34 12     1.444    1.854   96.2   33.0   110   17.8 
2026-07-19 00:00 UT   13 48 50.5   -17 32 43     1.453    1.851   95.5   33.1   110   17.8 
2026-07-20 00:00 UT   13 49 47.4   -17 31 26     1.462    1.848   94.7   33.2   110   17.8 
2026-07-21 00:00 UT   13 50 45.9   -17 30 20     1.471    1.845   94.0   33.3   110   17.8 
2026-07-22 00:00 UT   13 51 45.8   -17 29 25     1.480    1.842   93.3   33.4   110   17.8 
2026-07-23 00:00 UT   13 52 47.1   -17 28 41     1.489    1.840   92.5   33.5   110   17.8 
2026-07-24 00:00 UT   13 53 49.8   -17 28 09     1.498    1.837   91.8   33.6   110   17.9 


    Terminology:
            
    delta:  distance between minor planet and earth in AU
    radius: distance between minor planet and sun in AU
    magn:   magnitude (brightness) estimate    
    ra:     right ascension in hours (24h = 360deg)
    dec:    declination in degrees
    elong:  elongation in degrees (angle sun-earth-minor planet)    
    phase:  phase angle in degrees (angle sun-minor planet-earth)        
    AU:     Astronomical Unit (mean distance between earth and sun: 149597870.7 km
    

Orbital elements provided by the MPC (Minor Planet Center).
Calculations by a modified version of AAPlus, a C# implementation of the AA+ project by PJ Naughter from the algorithms presented in the book "Astronomical Algorithms" by Jean Meeus.
NGC2000 dso catalog and star labels from VizieR as provided by the Strasbourg astronomical Data Center.
Tycho2 catalog from the ESO archive.